Location: Bear Valley Community Church - Hurst
(32.8460°N, 97.1828°W)
Time: 01:58:25
(UTC+00:00)

OAO 2 Rocket - Pass Details

Date: 13 July 2022
Orbit: 675 x 745 km, 35.0° (Epoch: 07 August)

Event Time Altitude Azimuth Distance (km) Brightness Sun altitude
Exits shadow 09:35:40 14° 159° (SSE) 1,927 5.3 -20.3°
Maximum altitude 09:36:41 15° 145° (SE) 1,879 5.4 -20.2°
Drops below altitude 10° 09:39:27 10° 112° (ESE) 2,169 6.1 -19.8°
Sets 09:42:51 0° 89° (E) 3,073 7.4 -19.3°
